Change the Weather History Date:

Monday, July 1, 2013

  Actual Average Record
Temperature  
Mean Temperature 92 °F -  
Max Temperature 105 °F 101 °F 111 °F (1990)
Min Temperature 78 °F 71 °F 62 °F (1982)
Cooling Degree Days 26    
Growing Degree Days 42 (Base 50)    
Moisture  
Dew Point 57 °F    
Average Humidity 37    
Maximum Humidity 55    
Minimum Humidity 15    
Precipitation  
Precipitation 0.01 in - - ()
Sea Level Pressure  
Sea Level Pressure 29.85 in    
Wind  
Wind Speed 13 mph (East)    
Max Wind Speed 29 mph    
Max Gust Speed 36 mph    
Visibility 10 miles    
Events Rain , Thunderstorm    
Averages and records for this station are not official NWS values.
T = Trace of Precipitation, MM = Missing Value Source: NWS Daily Summary

Daily Weather History Graph

Daily Weather History Graph

Search for Another Location

Airport or City:

Trip Planner

Search our weather history database for the weather conditions in past years. The results will help you decide how hot, cold, wet, or windy it might be!

Date:

Astronomy

Jul. 01, 2013 Rise Set
Actual Time 5:20 AM MST 7:34 PM MST
Civil Twilight 4:52 AM MST 8:02 PM MST
Nautical Twilight 4:18 AM MST 8:36 PM MST
Astronomical Twilight 3:40 AM MST 9:13 PM MST
Moon 12:39 AM MST (7/1) 2:03 PM MST (7/1)
Length of Visible Light 15h 09m
Length of Day
14h 13m
Waning Crescent, 34% of the Moon is Illuminated
Jul 1
Waning Crescent
Jul 8
New
Jul 15
First Quarter
Jul 22
Full
Jul 29
Last Quarter

Hourly Weather History & Observations

Time (MST) Temp. Heat Index Dew Point Humidity Pressure Visibility Wind Dir Wind Speed Gust Speed Precip Events Conditions
12:05 AM 80.6 °F 81.1 °F 59.0 °F 48% 29.96 in 10.0 mi WSW 19.6 mph 24.2 mph N/A   Partly Cloudy
12:13 AM 78.8 °F - 59.0 °F 51% 29.95 in 10.0 mi SSW 12.7 mph 26.5 mph N/A   Partly Cloudy
12:21 AM 78.8 °F - 59.0 °F 51% 29.96 in 10.0 mi SE 12.7 mph 23.0 mph N/A   Clear
12:22 AM 78.8 °F - 59.0 °F 51% 29.97 in 10.0 mi ESE 13.8 mph - N/A   Clear
12:23 AM 78.8 °F - 59.0 °F 51% 29.97 in 10.0 mi East 13.8 mph - N/A   Clear
12:24 AM 78.8 °F - 59.0 °F 51% 29.97 in 10.0 mi East 12.7 mph - N/A   Clear
12:25 AM 78.8 °F - 59.0 °F 51% 29.97 in 10.0 mi ENE 12.7 mph - N/A   Clear
12:58 AM 79.9 °F - 58.8 °F 48% 29.82 in 10.0 mi SE 12.7 mph - N/A   Clear
1:58 AM 79.2 °F - 59.9 °F 52% 29.81 in 10.0 mi East 5.8 mph - N/A   Partly Cloudy
2:58 AM 79.2 °F - 61.3 °F 54% 29.81 in 10.0 mi East 5.8 mph - N/A   Mostly Cloudy
3:58 AM 79.9 °F - 60.8 °F 52% 29.79 in 10.0 mi ESE 6.9 mph - N/A   Scattered Clouds
4:58 AM 80.2 °F 80.8 °F 58.6 °F 48% 29.79 in 10.0 mi SE 8.1 mph - N/A   Mostly Cloudy
5:58 AM 80.2 °F 80.8 °F 59.2 °F 48% 29.82 in 10.0 mi ESE 12.7 mph - N/A   Scattered Clouds
6:58 AM 81.1 °F 81.6 °F 59.9 °F 48% 29.84 in 10.0 mi ESE 6.9 mph - N/A   Clear
7:58 AM 84.0 °F 84.2 °F 60.4 °F 45% 29.83 in 10.0 mi SSE 10.4 mph - N/A   Partly Cloudy
8:58 AM 90.3 °F 88.8 °F 57.0 °F 32% 29.84 in 10.0 mi SSE 9.2 mph - N/A   Clear
9:58 AM 93.7 °F 91.4 °F 54.5 °F 26% 29.83 in 10.0 mi SW 9.2 mph - N/A   Clear
10:58 AM 95.0 °F 93.0 °F 54.9 °F 26% 29.82 in 10.0 mi Calm Calm - N/A   Clear
11:58 AM 99.7 °F 97.8 °F 54.1 °F 22% 29.79 in 10.0 mi NW 8.1 mph - N/A   Clear
12:58 PM 100.6 °F - 52.5 °F 20% 29.77 in 10.0 mi NW 8.1 mph - N/A   Clear
1:58 PM 101.7 °F - 51.8 °F 19% 29.75 in 10.0 mi NE 2.3 mph - N/A   Clear
2:58 PM 103.8 °F - 50.9 °F 17% 29.73 in 10.0 mi Variable 2.3 mph - N/A   Clear
3:58 PM 105.3 °F - 49.5 °F 15% 29.70 in 10.0 mi WNW 12.7 mph - N/A   Clear
4:38 PM 100.4 °F - 51.8 °F 20% 29.86 in 10.0 mi North 10.4 mph - N/A Thunderstorm Thunderstorm
4:58 PM 100.6 °F - 50.5 °F 19% 29.72 in 10.0 mi North 13.8 mph - N/A Thunderstorm Thunderstorm
5:03 PM 98.6 °F - 51.8 °F 21% 29.86 in 10.0 mi North 12.7 mph 24.2 mph N/A Thunderstorm Clear
5:41 PM 96.8 °F - 50.0 °F 20% 29.87 in 10.0 mi NNE 16.1 mph 25.3 mph N/A Thunderstorm Light Drizzle
5:46 PM 96.8 °F 94.4 °F 53.6 °F 23% 29.88 in 10.0 mi North 15.0 mph 25.3 mph N/A Rain , Thunderstorm Light Thunderstorms and Rain
5:51 PM 95.0 °F 93.0 °F 55.4 °F 26% 29.88 in 10.0 mi NNW 23.0 mph 33.4 mph N/A Rain , Thunderstorm Light Thunderstorms and Rain
5:58 PM 94.1 °F 91.9 °F 54.3 °F 26% 29.74 in 10.0 mi NW 24.2 mph 35.7 mph 0.00 in Rain , Thunderstorm Light Thunderstorms and Rain
6:00 PM 93.2 °F - 51.8 °F 24% 29.88 in 10.0 mi NW 26.5 mph 35.7 mph N/A Rain , Thunderstorm Light Thunderstorms and Rain
6:03 PM 93.2 °F - 51.8 °F 24% 29.88 in 10.0 mi WNW 28.8 mph 35.7 mph N/A Thunderstorm Thunderstorm
6:05 PM 93.2 °F - 51.8 °F 24% 29.88 in 10.0 mi WNW 21.9 mph 29.9 mph N/A Thunderstorm Thunderstorm
6:19 PM 91.4 °F 89.1 °F 53.6 °F 28% 29.87 in 10.0 mi WNW 10.4 mph 23.0 mph N/A   Clear
6:58 PM 92.8 °F - 50.5 °F 24% 29.72 in 10.0 mi NNE 4.6 mph - 0.00 in   Clear
7:58 PM 92.1 °F 90.0 °F 54.1 °F 28% 29.73 in 10.0 mi ENE 5.8 mph - N/A   Partly Cloudy
8:41 PM 93.2 °F 90.8 °F 53.6 °F 26% 29.91 in 10.0 mi East 10.4 mph - N/A Thunderstorm Thunderstorm
8:51 PM 91.4 °F 89.4 °F 55.4 °F 29% 29.92 in 10.0 mi ESE 15.0 mph 21.9 mph N/A Rain , Thunderstorm Light Thunderstorms and Rain
8:56 PM 89.6 °F 91.1 °F 64.4 °F 43% 29.91 in 10.0 mi ESE 13.8 mph 21.9 mph N/A Rain , Thunderstorm Light Rain
8:58 PM 87.8 °F 89.4 °F 64.4 °F 46% 29.76 in 10.0 mi ESE 12.7 mph 21.9 mph 0.01 in Rain , Thunderstorm Rain
8:59 PM 87.8 °F 89.4 °F 64.4 °F 46% 29.91 in 10.0 mi ESE 12.7 mph - N/A Rain , Thunderstorm Thunderstorms and Rain
9:05 PM 84.2 °F 86.6 °F 66.2 °F 55% 29.92 in 10.0 mi ESE 13.8 mph - N/A Thunderstorm Thunderstorm
9:13 PM 84.2 °F 86.6 °F 66.2 °F 55% 29.92 in 10.0 mi SE 9.2 mph - N/A Thunderstorm Partly Cloudy
9:58 PM 83.5 °F 83.7 °F 61.0 °F 46% 29.77 in 10.0 mi SE 11.5 mph - 0.00 in   Clear
10:58 PM 84.2 °F 84.2 °F 60.3 °F 44% 29.81 in 10.0 mi ESE 13.8 mph - N/A   Partly Cloudy
11:01 PM 84.2 °F 84.4 °F 60.8 °F 45% 29.95 in 10.0 mi ESE 11.5 mph - N/A   Light Drizzle
11:28 PM 84.2 °F 84.4 °F 60.8 °F 45% 29.95 in 10.0 mi East 8.1 mph - N/A   Clear
11:58 PM 84.6 °F 84.4 °F 59.7 °F 43% 29.80 in 10.0 mi East 11.5 mph - 0.00 in   Clear